Ogden, UT

7:23 AM MDT on October 18, 2017 (GMT -0600)
Ogden-Hinckley

Weather History for KOGD - January, 2013

Change the Weather History Date:

Sunday, January 20, 2013

  Actual Average Record
Temperature  
Mean Temperature 10 °F -  
Max Temperature 14 °F 36 °F 56 °F (1953)
Min Temperature 6 °F 18 °F -11 °F (1984)
Degree Days  
Heating Degree Days 55    
Moisture  
Dew Point 6 °F    
Average Humidity 86    
Maximum Humidity 92    
Minimum Humidity 77    
Precipitation  
Precipitation 0.00 in - - ()
Sea Level Pressure  
Sea Level Pressure 30.56 in    
Wind  
Wind Speed 1 mph (WNW)    
Max Wind Speed 8 mph    
Max Gust Speed -    
Visibility 3 miles    
Events Snow    
Averages and records for this station are not official NWS values.
T = Trace of Precipitation, MM = Missing Value Source: NWS Daily Summary

Daily Weather History Graph

Daily Weather History Graph

Search for Another Location

Airport or City:

Trip Planner

Search our weather history database for the weather conditions in past years. The results will help you decide how hot, cold, wet, or windy it might be!

Date:

Astronomy

Jan. 20, 2013 Rise Set
Actual Time 7:48 AM MST 5:30 PM MST
Civil Twilight 7:18 AM MST 6:00 PM MST
Nautical Twilight 6:44 AM MST 6:34 PM MST
Astronomical Twilight 6:11 AM MST 7:06 PM MST
Moon 12:33 PM MST (1/20) 2:24 AM MST (1/20)
Length of Visible Light 10h 41m
Length of Day
9h 41m
Waxing Gibbous, 67% of the Moon is Illuminated
Jan 20
Waxing Gibbous
Jan 26
Full
Feb 3
Last Quarter
Feb 10
New
Feb 17
First Quarter

Hourly Weather History & Observations

Time (MST) Temp. Windchill Dew Point Humidity Pressure Visibility Wind Dir Wind Speed Gust Speed Precip Events Conditions
12:53 AM 12.0 °F - 9.0 °F 88% 30.66 in 2.5 mi Calm Calm - N/A   Overcast
12:59 AM 10.4 °F - 8.6 °F 92% 30.49 in 3.0 mi Calm Calm - N/A   Overcast
1:53 AM 10.0 °F - 7.0 °F 87% 30.66 in 3.0 mi Calm Calm - N/A   Overcast
2:19 AM 10.4 °F - 8.6 °F 92% 30.49 in 3.0 mi Calm Calm - N/A   Overcast
2:53 AM 10.9 °F - 7.0 °F 84% 30.65 in 3.0 mi Calm Calm - N/A   Overcast
3:38 AM 12.2 °F - 10.4 °F 92% 30.49 in 2.5 mi Calm Calm - N/A   Overcast
3:53 AM 12.9 °F - 10.0 °F 88% 30.64 in 2.5 mi Calm Calm - N/A   Overcast
4:19 AM 12.2 °F - 10.4 °F 92% 30.48 in 1.5 mi Calm Calm - 0.00 in Snow Light Snow
4:31 AM 12.2 °F - 8.6 °F 85% 30.48 in 1.8 mi Calm Calm - 0.00 in Snow Light Snow
4:53 AM 10.9 °F - 8.1 °F 88% 30.66 in 1.8 mi Calm Calm - 0.00 in Snow Light Snow
5:01 AM 10.4 °F - 6.8 °F 85% 30.48 in 2.0 mi Calm Calm - 0.00 in Snow Light Snow
5:33 AM 10.4 °F 4.0 °F 6.8 °F 85% 30.48 in 1.8 mi WNW 3.5 mph - 0.00 in Snow Light Snow
5:48 AM 8.6 °F - 6.8 °F 92% 30.48 in 1.5 mi Calm Calm - 0.00 in Snow Light Snow
5:53 AM 9.0 °F - 6.1 °F 88% 30.67 in 1.8 mi Calm Calm - 0.00 in Snow Light Snow
6:12 AM 8.6 °F 2.0 °F 5.0 °F 85% 30.49 in 2.5 mi WNW 3.5 mph - 0.00 in   Overcast
6:32 AM 8.6 °F - 5.0 °F 85% 30.49 in 3.0 mi Calm Calm - 0.00 in   Overcast
6:43 AM 8.6 °F - 3.2 °F 79% 30.49 in 2.5 mi Calm Calm - 0.00 in   Overcast
6:53 AM 8.1 °F - 3.9 °F 83% 30.68 in 2.5 mi Calm Calm - 0.00 in   Overcast
7:00 AM 8.6 °F - 3.2 °F 79% 30.49 in 3.0 mi Calm Calm - N/A   Overcast
7:14 AM 6.8 °F - 1.4 °F 79% 30.49 in 2.5 mi Calm Calm - N/A   Haze
7:29 AM 8.6 °F - 5.0 °F 85% 30.49 in 2.5 mi Calm Calm - N/A   Overcast
7:53 AM 8.1 °F - 5.0 °F 87% 30.68 in 1.8 mi Calm Calm - N/A   Overcast
8:20 AM 8.6 °F - 5.0 °F 85% 30.50 in 2.0 mi Calm Calm - N/A   Overcast
8:34 AM 8.6 °F 2.0 °F 3.2 °F 79% 30.50 in 1.2 mi SSE 3.5 mph - 0.00 in Snow Light Snow
8:53 AM 8.1 °F - 5.0 °F 87% 30.71 in 1.2 mi Calm Calm - 0.00 in Snow Light Snow
9:12 AM 8.6 °F 2.0 °F 3.2 °F 79% 30.51 in 2.5 mi SSE 3.5 mph - 0.00 in   Overcast
9:20 AM 8.6 °F 2.0 °F 3.2 °F 79% 30.51 in 3.0 mi SSE 3.5 mph - 0.00 in   Mostly Cloudy
9:30 AM 8.6 °F - 6.8 °F 92% 30.51 in 3.0 mi Calm Calm - 0.00 in   Scattered Clouds
9:53 AM 10.0 °F - 8.1 °F 92% 30.71 in 2.5 mi Calm Calm - 0.00 in   Clear
10:53 AM 10.9 °F 4.7 °F 6.1 °F 81% 30.71 in 2.5 mi NW 3.5 mph - N/A   Haze
11:42 AM 12.2 °F 4.3 °F 8.6 °F 85% 30.51 in 3.0 mi NNW 4.6 mph - N/A   Clear
11:53 AM 12.0 °F 4.1 °F 7.0 °F 80% 30.68 in 3.0 mi NW 4.6 mph - N/A   Haze
12:53 PM 12.9 °F 1.6 °F 7.0 °F 77% 30.66 in 3.0 mi NW 8.1 mph - N/A   Haze
1:53 PM 14.0 °F - 8.1 °F 77% 30.64 in 5.0 mi Calm Calm - N/A   Haze
2:53 PM 14.0 °F 5.1 °F 9.0 °F 80% 30.63 in 5.0 mi NW 5.8 mph - N/A   Haze
3:53 PM 12.9 °F 5.2 °F 8.1 °F 81% 30.62 in 3.0 mi NNW 4.6 mph - N/A   Haze
4:53 PM 9.0 °F -0.9 °F 6.1 °F 88% 30.64 in 4.0 mi NW 5.8 mph - N/A   Clear
5:10 PM 8.6 °F -1.3 °F 6.8 °F 92% 30.46 in 3.0 mi NNW 5.8 mph - N/A   Scattered Clouds
5:15 PM 10.4 °F 2.2 °F 6.8 °F 85% 30.46 in 2.5 mi NNW 4.6 mph - N/A   Mostly Cloudy
5:47 PM 10.4 °F - 6.8 °F 85% 30.45 in 3.0 mi Calm Calm - N/A   Overcast
5:53 PM 10.9 °F - 8.1 °F 88% 30.65 in 3.0 mi Calm Calm - N/A   Overcast
6:15 PM 10.4 °F - 8.6 °F 92% 30.46 in 2.5 mi Calm Calm - N/A   Overcast
6:27 PM 10.4 °F - 8.6 °F 92% 30.46 in 1.5 mi Calm Calm - 0.00 in Snow Light Snow
6:43 PM 10.4 °F - 6.8 °F 85% 30.46 in 2.0 mi Calm Calm - 0.00 in Snow Light Snow
6:53 PM 10.9 °F - 8.1 °F 88% 30.65 in 2.5 mi Calm Calm - 0.00 in   Overcast
7:03 PM 10.4 °F - 8.6 °F 92% 30.46 in 3.0 mi Calm Calm - N/A   Overcast
7:29 PM 10.4 °F - 8.6 °F 92% 30.47 in 2.5 mi Calm Calm - 0.00 in Snow Light Snow
7:44 PM 10.4 °F - 8.6 °F 92% 30.46 in 3.0 mi Calm Calm - 0.00 in   Overcast
7:53 PM 10.0 °F - 7.0 °F 87% 30.66 in 4.0 mi Calm Calm - 0.00 in   Overcast
8:09 PM 10.4 °F - 6.8 °F 85% 30.46 in 4.0 mi Calm Calm - N/A   Overcast
8:50 PM 8.6 °F - 6.8 °F 92% 30.47 in 2.0 mi Calm Calm - 0.00 in Snow Light Snow
8:53 PM 8.1 °F - 6.1 °F 92% 30.68 in 2.0 mi Calm Calm - 0.00 in Snow Light Snow
9:10 PM 8.6 °F - 5.0 °F 85% 30.47 in 3.0 mi Calm Calm - 0.00 in Snow Light Snow
9:20 PM 8.6 °F - 6.8 °F 92% 30.47 in 4.0 mi Calm Calm - 0.00 in   Scattered Clouds
9:53 PM 7.0 °F - 3.0 °F 84% 30.68 in 5.0 mi Calm Calm - 0.00 in   Clear
10:25 PM 6.8 °F -0.1 °F 1.4 °F 79% 30.49 in 5.0 mi SSW 3.5 mph - N/A   Scattered Clouds
10:35 PM 6.8 °F -0.1 °F 3.2 °F 85% 30.49 in 4.0 mi SSE 3.5 mph - N/A   Mostly Cloudy
10:53 PM 6.1 °F -2.8 °F 3.0 °F 87% 30.69 in 5.0 mi SE 4.6 mph - N/A   Overcast
11:53 PM 9.0 °F - 5.0 °F 84% 30.67 in 4.0 mi Calm Calm - N/A   Overcast